EUTELSAT 117 WEST A

Last updated on Wed Sep 17 2025 00:02:48 GMT+0000 (Coordinated Universal Time)

1 39122U 13012A 25259.56059191 -.00000032 00000+0 00000+0 0 9997 2 39122 0.0263 283.8805 0002876 260.4840 256.4097 1.00270263 45688
UTC large
Height (km)
Speed (km/s)
/
Latitude / Longitude
Inclination (degrees)
Orbital Period (minutes)
Azimuth
Elevation
Range (km)
Doppler Factor

Next 0 passes for location: London (51.5072 / 0.1276)

Sorry there are no passes over London.